Lapse_Rate
7.3 6.5 6.5 6.5 6.5 6.5 6.5 6.5 6.5 6.5 6.5 6.5 6.5 6.5 6.5 7.0 7.2 7.1 7.3 7.6 7.9 8.1 8.8 9.2 9.3 9.5 9.5 9.6 9.4 9.4 8.2 6.3 6.8 4.0 3.5 4.3 2.4 2.3 0.3 -0.1 0.2 1.4 5.3 5.8
6.5 6.5 6.5 6.5 6.5 6.5 6.5 6.5 6.5 6.5 6.5 6.5 6.5 6.5 6.5 6.6 6.8 7.2 7.3 7.5 7.8 8.2 8.6 8.8 9.1 9.3 9.4 9.4 9.5 9.5 9.5 7.7 6.3 7.3 4.9 3.7 3.6 2.7 0.6 0.1 -0.1 3.6 5.3 5.7
6.5 6.5 6.8 6.5 6.5 6.5 6.5 6.5 6.5 6.5 6.5 6.5 6.5 6.5 6.5 6.6 7.1 7.4 7.7 7.8 8.0 8.1 8.3 8.7 8.9 9.2 9.3 9.3 9.4 9.4 9.5 9.1 6.5 5.9 6.6 4.6 5.3 2.2 1.9 2.7 1.0 2.4 3.0 6.0
6.5 6.7 6.5 6.5 6.5 6.5 6.5 6.5 6.5 6.5 6.5 6.5 6.5 6.5 6.5 6.5 6.5 6.5 7.1 7.6 7.9 8.2 8.5 8.7 8.9 9.0 9.3 9.4 9.6 9.6 9.6 9.5 8.4 6.0 7.4 4.1 4.7 4.1 1.1 0.9 0.8 1.3 0.6 6.4
6.5 6.5 6.5 6.5 6.5 6.5 6.5 6.5 6.5 6.5 6.5 6.5 6.5 6.5 6.5 6.5 6.5 6.5 6.8 7.4 7.9 8.2 8.5 8.6 8.8 9.0 9.3 9.4 9.5 9.6 9.6 9.5 9.6 6.5 7.1 4.8 3.1 4.1 5.2 1.3 1.0 1.9 2.3 6.1
6.5 7.3 6.6 6.5 6.5 6.5 6.5 6.5 6.5 6.5 6.5 6.5 6.5 6.5 6.5 6.5 6.5 6.5 6.8 7.4 7.8 8.1 8.4 8.7 9.0 9.2 9.2 9.5 9.5 9.5 9.5 9.4 9.6 8.7 7.4 5.8 4.6 4.0 5.2 1.4 2.5 2.0 2.5 6.3
6.5 6.5 6.7 7.0 6.5 6.5 6.5 6.5 6.5 6.5 6.5 6.5 6.5 6.5 6.5 6.5 6.5 6.5 6.6 7.3 7.9 8.4 8.4 8.5 8.7 8.8 9.0 9.1 9.3 9.5 9.4 9.2 9.5 9.5 9.2 6.7 3.9 3.2 4.3 2.4 2.4 2.3 2.2 6.0
6.5 6.5 6.5 6.7 6.5 6.5 6.5 6.5 6.5 6.5 6.5 6.5 6.5 6.5 6.5 6.5 7.0 7.3 7.5 7.8 8.0 8.3 8.6 8.5 8.7 8.9 9.0 9.1 9.2 9.3 9.3 9.2 9.4 9.5 8.7 8.0 5.5 3.8 4.4 0.8 2.5 2.0 3.3 5.1
6.5 6.5 6.5 6.5 6.7 6.6 6.5 6.5 6.5 6.5 6.5 6.5 6.5 6.5 6.5 6.5 6.5 6.9 7.2 7.6 7.8 8.2 8.7 8.5 8.7 8.9 9.0 9.1 9.1 9.2 9.2 9.3 9.4 9.4 9.0 8.3 5.3 3.6 4.7 2.5 1.8 2.5 3.2 3.2
6.5 6.5 6.5 6.5 6.8 6.7 6.5 6.5 6.5 6.5 6.5 6.5 6.5 6.5 6.5 6.5 6.5 6.5 6.6 7.2 8.0 8.3 8.7 8.8 9.0 8.7 9.0 9.0 9.3 9.3 9.3 9.2 9.3 9.4 9.3 8.8 6.7 5.4 6.0 3.5 1.2 2.3 2.9 4.0
6.5 6.5 6.5 6.5 6.5 6.5 6.5 6.5 6.5 6.5 6.5 6.5 6.5 6.5 6.5 6.5 6.5 6.5 6.6 7.4 7.6 7.8 8.2 8.7 9.3 9.0 8.9 9.0 9.1 9.0 9.1 9.2 9.2 9.3 9.3 8.5 7.4 5.4 8.1 5.2 1.6 2.4 2.0 2.3
6.6 6.5 6.5 6.5 6.5 6.6 6.5 6.5 6.5 6.5 6.5 6.5 6.5 6.5 6.5 6.5 6.5 6.6 6.7 7.1 7.5 7.6 8.1 8.7 9.3 9.0 9.5 8.8 8.8 8.9 9.0 9.1 9.2 9.3 9.2 8.4 7.6 5.9 8.0 6.1 2.4 3.2 2.2 2.4
6.6 6.5 6.5 6.5 6.5 6.5 6.5 6.5 6.5 6.5 6.5 6.5 6.5 6.5 6.5 6.5 6.5 6.8 6.8 7.2 7.3 7.6 8.0 8.4 8.2 9.0 9.1 8.9 8.7 8.8 8.8 8.9 9.2 9.2 9.1 9.1 7.8 5.9 8.0 6.2 1.9 2.9 2.8 4.3
7.1 6.5 6.5 6.5 6.5 6.5 6.5 6.5 6.5 6.5 6.5 6.5 6.5 6.5 6.5 6.5 6.5 6.6 7.0 7.2 7.4 7.5 7.6 7.5 8.0 8.4 8.8 8.9 8.6 8.7 8.7 8.8 8.8 9.1 9.0 9.0 8.2 7.1 7.8 6.1 4.0 2.3 3.4 5.6
6.6 6.5 6.5 6.5 6.5 6.5 6.5 6.5 6.5 6.5 6.5 6.5 6.5 6.5 6.5 6.5 6.5 6.8 7.1 7.2 7.3 7.3 7.2 7.5 7.6 7.9 8.5 8.5 8.5 8.6 8.6 8.7 8.9 9.2 9.0 9.3 8.3 7.3 7.8 6.9 3.5 2.9 4.2 5.6
6.7 6.5 6.5 6.5 6.5 6.5 6.5 6.5 6.5 6.5 6.5 6.5 6.5 6.5 6.5 6.7 7.0 6.9 7.0 7.1 7.1 7.0 7.4 7.4 7.6 8.0 8.2 8.0 8.3 8.5 8.5 8.4 8.7 9.0 8.9 9.2 8.2 7.2 7.4 7.1 2.7 3.8 4.7 5.2
6.5 6.5 6.5 6.5 6.5 6.5 6.5 6.5 6.5 6.5 6.5 6.5 6.5 6.5 6.5 6.5 6.6 6.8 7.0 7.1 6.9 7.2 7.2 7.3 7.4 7.6 7.7 8.0 8.2 7.7 6.5 7.8 8.4 9.0 9.0 9.1 7.7 8.8 8.2 7.4 3.3 5.0 5.9 5.2
6.5 6.5 6.5 6.5 6.5 6.5 6.5 6.5 6.5 6.5 6.5 6.5 6.5 6.5 6.6 6.7 7.1 7.2 7.2 6.9 7.0 7.2 7.2 7.3 7.4 7.4 7.6 6.3 5.5 4.9 5.3 6.2 8.1 8.8 9.0 9.1 7.2 8.8 8.3 4.7 5.1 5.0 5.7 4.9
7.0 6.5 6.5 6.5 6.5 6.5 6.5 6.5 6.5 6.5 6.5 6.5 6.5 6.5 6.9 7.2 7.3 6.9 7.4 7.5 7.1 7.1 7.2 7.2 7.2 7.1 6.2 5.6 4.5 6.0 6.1 7.5 8.5 8.7 8.8 7.6 7.6 8.6 5.9 4.5 5.3 5.4 5.2 5.0
6.6 6.5 6.5 6.5 6.5 6.5 6.5 6.5 7.3 6.9 6.5 6.9 6.7 6.7 6.7 7.0 6.5 6.5 7.3 7.3 7.1 7.3 7.2 7.0 7.1 6.7 6.3 4.6 5.9 6.6 7.3 8.5 8.4 8.4 6.7 7.5 8.7 8.0 4.3 4.8 4.4 4.1 4.3 4.1
6.5 6.5 6.5 6.5 6.5 6.5 6.5 7.0 7.3 6.5 6.5 7.0 7.3 7.2 7.0 6.5 7.0 7.3 7.3 7.2 7.2 7.3 7.1 7.2 6.9 6.8 6.2 4.1 5.2 7.6 8.1 8.1 7.0 6.7 7.2 8.4 7.0 5.3 4.8 4.0 4.3 3.4 3.2 2.8
6.5 6.5 6.5 6.5 6.5 6.5 7.1 6.8 6.5 6.7 7.5 7.5 7.6 7.5 7.2 7.5 7.5 7.6 7.5 7.2 7.1 7.1 6.6 5.1 6.5 6.7 5.5 3.1 3.9 7.2 5.3 5.9 7.3 6.9 7.1 7.2 5.7 4.4 4.7 3.8 3.1 2.9 3.0 2.8
6.5 6.5 6.5 6.5 6.5 7.0 7.5 7.3 7.7 7.9 7.6 7.6 7.8 7.5 7.6 7.5 7.7 7.7 7.7 7.4 7.1 7.0 6.8 6.2 6.5 6.4 5.1 3.4 3.7 3.4 4.5 6.0 6.2 6.5 4.9 4.1 4.1 3.9 4.1 3.7 2.5 2.5 2.9 2.8
6.5 7.0 6.5 6.5 6.6 6.9 7.4 6.9 6.6 7.8 7.8 8.0 8.0 7.7 8.0 7.6 7.9 7.6 7.6 7.5 7.4 7.0 6.7 6.0 6.1 4.7 4.6 2.4 2.2 1.2 0.4 4.5 3.0 1.8 1.9 2.5 2.5 2.2 2.8 2.9 3.0 3.0 3.2 3.2
6.7 6.9 6.5 6.5 6.8 7.1 6.8 6.9 6.4 5.9 6.6 7.4 6.5 6.9 7.7 6.9 7.0 7.7 6.9 7.0 6.5 7.2 5.4 4.9 5.3 4.9 3.9 2.1 1.8 0.0 -0.5 0.4 -0.4 -1.1 -1.3 -0.7 0.1 0.1 -0.5 0.4 1.8 2.3 2.4 1.2
7.1 6.5 6.5 6.5 7.0 7.0 7.2 6.3 6.3 5.3 5.6 6.2 5.9 6.1 5.4 5.9 5.3 6.6 6.3 5.7 6.3 5.9 5.4 3.8 3.9 3.6 2.9 2.1 0.3 -1.1 -1.1 -0.8 0.0 -0.5 -0.5 -0.2 0.1 0.4 0.6 0.8 1.0 1.0 1.4 1.3
Wind_Speed
6 8 8 8 5 5 13 15 16 17 9 20 13 21 16 9 6 6 3 6 10 12 14 17 18 17 16 16 15 14 13 13 10 7 6 6 7 7 6 3 17 27 29 31
2 8 7 5 4 12 14 18 11 12 11 19 12 20 10 2 5 4 5 7 10 14 19 23 23 19 16 15 16 15 13 14 11 7 6 6 7 6 4 8 10 16 22 32
6 4 7 4 6 17 19 7 14 21 26 2 11 5 3 5 7 8 7 6 9 13 23 26 24 20 17 16 17 16 15 15 14 13 7 8 8 6 5 5 6 10 17 31
4 5 6 7 8 15 15 9 20 22 10 4 7 6 2 3 6 7 4 9 12 19 25 23 22 21 19 17 16 17 16 15 14 15 11 12 8 6 3 4 5 9 15 24
7 7 7 9 10 13 8 24 20 8 4 4 1 4 3 4 5 6 8 10 15 24 25 25 22 20 20 18 16 17 17 17 15 15 13 10 11 6 5 4 9 9 12 19
4 2 2 5 15 7 16 17 1 3 2 3 4 5 7 3 7 11 10 14 23 28 26 24 22 21 19 18 17 17 18 17 15 15 14 15 16 11 7 3 6 6 10 14
9 1 1 8 9 2 17 14 5 2 2 4 6 9 10 9 9 9 12 19 30 28 26 27 25 22 21 21 19 17 18 17 16 16 15 15 15 14 11 8 6 6 8 13
8 3 7 11 5 7 8 7 4 6 7 12 15 7 3 4 7 8 15 28 30 30 27 27 26 25 23 22 21 19 19 19 17 17 17 16 17 10 9 8 7 5 7 8
7 4 3 3 5 4 5 5 3 5 7 5 6 7 18 1 8 14 27 31 30 30 27 30 28 25 25 23 22 20 21 20 18 18 16 15 15 14 11 12 9 7 9 11
1 8 1 2 0 4 3 2 2 2 6 8 8 13 10 10 14 26 29 30 31 29 29 28 26 27 24 22 21 20 19 21 19 18 17 15 14 15 14 10 11 11 9 11
3 2 0 6 1 4 1 0 3 3 4 5 8 7 3 8 19 28 29 30 32 32 30 27 26 26 23 23 20 18 18 20 18 18 18 17 13 16 15 13 13 13 9 8
1 3 6 5 3 1 0 1 2 4 2 8 9 10 5 9 26 24 28 32 31 30 29 27 27 26 24 22 20 18 18 18 17 18 17 17 15 16 15 17 15 14 10 11
3 1 8 2 3 4 4 3 4 6 7 13 9 9 9 27 27 25 32 33 30 30 30 26 23 24 24 22 20 18 17 17 17 17 17 18 16 17 18 18 16 13 11 16
3 3 7 8 15 15 16 15 10 7 6 11 15 36 31 30 29 33 35 32 32 29 27 24 24 23 22 22 20 18 16 17 17 18 18 19 17 19 15 17 16 10 10 18
2 5 8 16 20 17 16 12 7 9 12 9 26 27 29 27 32 34 33 33 33 31 27 28 26 23 23 22 20 17 15 16 17 17 19 18 16 18 15 17 14 10 12 18
1 4 6 8 1 2 11 7 8 10 13 18 20 26 16 28 29 30 32 32 32 30 33 30 29 27 23 21 17 15 15 15 17 19 20 18 17 18 17 17 13 12 11 19
3 4 6 5 8 6 3 7 9 14 15 15 13 20 25 32 31 32 36 33 29 34 32 31 29 25 21 21 16 15 13 14 16 19 20 19 18 17 19 17 13 17 21 21
4 5 3 6 11 3 1 3 7 12 19 12 13 18 27 28 29 31 29 25 32 32 33 30 25 25 24 20 14 12 12 14 15 20 19 17 17 17 19 13 12 18 19 20
8 3 4 4 7 10 1 3 10 9 18 3 11 24 26 28 30 24 22 32 32 31 27 24 22 23 21 16 13 9 12 15 18 18 17 18 17 19 17 14 18 16 16 17
4 2 3 3 4 4 2 5 14 3 5 9 20 23 26 29 21 21 39 39 38 35 25 25 24 20 17 15 10 8 12 15 15 15 16 17 18 18 18 18 18 16 16 14
2 2 4 4 5 7 2 12 9 10 11 22 20 20 23 19 17 30 34 35 32 30 32 26 21 19 19 18 11 10 11 12 14 13 12 15 15 20 18 17 14 14 13 12
2 2 2 2 4 6 1 5 8 10 15 18 20 19 22 23 27 29 31 31 33 32 35 37 28 23 21 22 16 7 5 9 15 15 17 15 17 13 12 17 15 15 14 13
2 4 2 6 4 2 8 6 8 9 15 17 18 20 20 24 27 29 29 31 30 29 26 25 23 22 20 20 14 10 9 15 13 12 14 16 15 13 12 13 15 12 12 11
5 4 4 3 3 4 9 6 5 10 13 16 19 19 20 22 25 27 26 26 27 27 25 26 27 30 27 24 19 16 15 10 10 15 14 13 14 12 11 9 9 10 10 9
1 7 6 6 12 10 1 4 7 14 13 17 18 19 18 19 23 25 24 26 25 24 27 25 26 25 29 27 23 23 19 9 14 14 11 10 9 10 8 7 6 7 9 13
7 7 6 2 4 3 6 4 11 9 14 15 16 19 20 18 19 22 22 21 22 25 24 24 26 26 28 28 28 26 22 15 12 12 8 8 7 7 8 8 7 8 9 13
Wind_Direction
29 49 33 9 17 355 317 302 290 299 335 328 308 301 309 323 220 241 291 344 344 340 335 334 331 325 321 318 316 315 310 309 311 312 308 283 332 306 320 6 286 315 162 167
162 54 7 319 311 327 323 311 309 310 313 319 307 300 309 311 220 256 298 319 333 332 336 333 329 327 323 317 314 310 305 301 298 290 299 294 280 258 338 311 325 302 175 170
51 17 327 339 334 341 334 294 320 311 323 282 310 264 220 187 227 224 245 311 316 328 335 330 327 323 321 318 313 306 301 296 289 284 261 259 254 266 234 257 281 287 303 166
61 358 344 332 342 346 318 329 312 310 316 313 3 303 251 198 263 243 260 318 331 331 335 331 324 320 319 315 308 301 297 290 284 283 276 276 253 270 282 287 287 307 325 170
4 342 349 345 340 330 296 311 309 308 255 295 105 273 245 240 278 319 319 321 326 334 333 329 322 317 313 310 305 297 293 286 279 275 271 266 276 250 235 274 300 304 296 192
352 296 296 340 315 326 327 309 307 200 217 246 118 7 273 285 316 317 322 322 328 332 329 326 319 316 312 308 303 294 290 281 273 266 262 252 244 238 239 214 267 299 311 181
323 210 334 341 324 334 355 348 338 307 300 318 182 309 265 301 307 302 313 321 329 328 327 324 323 319 315 309 302 294 284 275 272 265 255 250 254 255 239 210 233 266 305 189
358 329 5 4 33 315 355 11 19 312 316 312 300 231 298 307 323 313 317 326 325 325 325 320 320 318 316 308 301 293 280 275 269 261 252 243 232 233 232 214 220 247 262 239
338 273 335 30 19 340 351 20 354 284 259 272 266 281 278 15 318 328 328 328 323 324 321 318 320 313 311 309 298 290 281 272 263 255 249 238 234 227 224 214 222 230 256 277
128 289 145 348 197 80 3 2 291 347 308 302 284 298 268 318 341 333 330 325 322 321 318 315 313 310 309 300 295 289 275 266 257 249 241 232 219 222 219 207 216 238 252 277
161 230 254 280 52 335 206 73 9 277 278 305 308 292 21 304 331 333 328 323 321 317 313 311 308 308 301 302 297 287 274 263 251 240 234 228 218 219 210 199 210 227 247 258
108 304 286 327 5 59 1 132 25 314 322 267 279 271 288 332 331 326 319 317 315 308 307 307 308 305 308 304 297 287 275 260 247 236 225 219 214 215 206 202 200 207 228 257
162 184 312 126 160 182 238 198 230 261 265 259 273 266 312 321 321 317 318 314 310 308 308 307 303 308 306 303 297 286 273 258 244 231 216 213 207 210 210 203 197 191 194 241
211 250 227 267 287 307 299 298 286 249 269 280 263 292 310 317 319 319 314 311 308 309 308 305 309 305 302 300 295 283 269 250 234 224 211 208 202 208 211 203 194 181 227 187
282 264 276 267 282 285 279 279 276 219 244 266 294 298 301 311 316 312 309 310 311 311 311 315 311 308 303 298 294 280 263 246 223 217 207 203 200 202 209 202 182 172 238 180
163 275 324 289 82 262 284 263 216 234 268 270 287 291 292 312 307 308 312 312 310 311 317 317 314 310 305 298 288 274 257 241 224 206 205 198 195 201 204 195 170 191 219 177
273 303 319 278 310 329 254 217 214 281 279 283 292 299 318 316 316 317 313 309 312 316 317 318 316 312 306 304 291 266 249 235 223 204 201 199 185 202 201 188 164 213 188 171
274 284 269 294 319 301 91 225 248 273 285 279 272 295 311 310 307 306 298 316 316 319 321 320 318 316 313 304 288 258 236 228 218 194 193 190 189 202 193 170 181 159 167 166
225 287 303 302 305 292 176 204 325 334 310 237 287 313 316 317 310 309 327 324 320 319 321 318 316 313 307 303 297 263 219 218 185 185 184 181 207 186 176 163 158 157 159 163
126 238 273 319 302 290 87 314 329 145 271 338 335 321 321 327 334 329 328 324 325 324 329 325 329 324 329 333 313 232 187 183 176 178 178 192 196 176 149 154 154 162 159 156
238 203 251 268 270 279 340 327 307 335 320 332 325 318 320 324 308 304 313 318 320 324 327 337 344 349 349 345 340 172 168 175 161 158 208 187 187 150 145 149 151 151 148 146
246 273 268 228 268 318 58 308 354 322 309 316 314 317 316 312 312 317 320 323 325 337 340 344 348 355 356 359 3 51 105 136 173 230 174 178 138 125 142 151 149 144 149 152
252 207 283 226 272 83 324 297 300 304 310 313 315 313 315 316 320 324 327 328 330 339 342 342 350 351 358 2 4 2 296 201 225 150 137 112 113 117 133 144 137 139 150 159
218 177 228 312 211 265 304 302 269 319 313 314 314 316 323 322 324 326 330 331 334 340 346 342 352 355 6 2 2 360 2 130 104 88 88 102 108 113 120 126 135 146 154 150
303 164 211 250 281 291 195 235 314 317 323 322 320 323 329 329 327 330 331 333 333 343 343 350 351 358 356 357 5 2 8 39 78 77 75 79 91 95 87 85 117 149 174 160
190 195 188 247 142 240 286 321 321 316 323 321 320 322 330 335 330 331 330 335 333 340 348 346 352 358 0 355 359 1 1 13 73 74 70 81 86 90 95 93 90 78 110 123